RCSS

Taipei/Songshan

Airport
ICAO code
RCSS
Summary
ICAO Region
APAC
ICAO Territory
Location

Songshan District, Taipei,

Coordinates
25° 4' 10" N , 121° 33' 7" E
KCC
Metar
RCSS 241800Z 25004KT 210V290 9999 FEW018 SCT120 27/25 Q1010 NOSIG RMK A2984

Description

Taipei Songshan Airport is a midsize commercial airport and military airbase located in Songshan, Taipei, Taiwan. It is one of three Taiwanese airports with regular international flights.

Climatology

Humid “subtropical” climate (Köppen climate classification Cfa) - characterized by hot, humid summers and cool winters. Significant amounts of precipitation occur in all seasons in most areas. Winter rainfall is associated with large storms.

Runways

Designator Length Width Surface Rops
10/28 2605 60 ASP Yes/Yes

Airport map

Aerial View

SKYbrary Partners:

Safety knowledge contributed by: